User: anonymous
Location: Unspecified
(0.0000°N, 0.0000°E)
Time: 08:39:20
(UTC+02:00)
Language:

Ariane H10 - Orbit

View from above orbital plane
View from above orbital plane
View from above satellite
View from above satellite

Ground track
Ground track

The orbit data is extracted from the following two-line orbital elements,

1 19122U 88040B   14207.45774759  .00000169  00000-0  12141-2 0    96
2 19122 007.1512 243.0773 7152015 014.8249 018.5191 02.32223750172290
Epoch (UTC): 26 July 2014 10:59:09
Eccentricity: 0.7152015
inclination: 7.1512°
perigee height: 482 km
apogee height: 34937 km
right ascension of ascending node: 243.0773°
argument of perigee: 14.8249°
revolutions per day: 2.32223750
mean anomaly at epoch: 18.5191°
orbit number at epoch: 17229

The dashed part of the orbit path shows where the satellite is in the earth's shadow,  

DLR